Location: T�bingen+AIT
(48.5342°N, 9.0700°E)
Time: 08:27:01
(UTC+02:00)

Daily predictions for brighter satellites

Satellite Brightness Start Highest point End
(mag) Time Altitude Azimuth Time Altitude Azimuth Time Altitude Azimuth
Cosmos 1727 Rocket 4.2 20:55:25 10° N 21:01:28 53° ENE 21:07:29 10° SSE
Cosmos 2369 Rocket 3.6 20:58:39 10° NNW 21:03:23 26° NE 21:08:04 10° E
Cosmos 1140 Rocket 3.9 20:59:00 10° NNW 21:04:02 49° ENE 21:09:00 10° SE
NOSS 3-4 (A) 4.1 20:59:01 10° NW 21:05:59 76° SW 21:13:30 10° SSE
NOSS 3-4 (C) 4.0 20:59:07 10° NW 21:06:05 76° SW 21:13:36 10° SSE
Cosmos 2297 3.8 21:02:47 10° NNW 21:08:31 88° WSW 21:14:14 10° SSE
ATLAS 5 CENTAUR R/B 3.2 21:05:54 10° NNW 21:11:11 39° NE 21:17:04 10° ESE
Cosmos 2056 Rocket 3.6 21:05:58 10° S 21:11:19 65° ESE 21:16:39 10° NNE
Cosmos 1452 Rocket 4.4 21:07:30 10° SSE 21:11:54 28° E 21:16:18 10° NE
H-2A R/B 3.2 21:08:15 10° ESE 21:12:19 26° ENE 21:16:21 10° N
Cosmos 1933 Rocket 4.2 21:08:37 10° NNW 21:12:56 58° W 21:17:11 10° S
Cosmos 2219 Rocket 3.8 21:09:42 10° WSW 21:15:00 40° NW 21:20:18 10° NNE
Cosmos 1862 3.6 21:12:57 10° N 21:16:53 48° ENE 21:20:46 10° SSE
Cosmos 2344 4.1 21:13:37 10° S 21:20:24 37° ESE 21:27:46 10° NE
Resurs 01 Rocket 1.9 21:18:15 10° S 21:22:41 73° WSW 21:27:08 10° NNW
Cosmos 1190 Rocket 4.4 21:17:41 10° NNW 21:22:57 66° WSW 21:28:07 10° S
Cosmos 2333 Rocket 3.8 21:18:51 10° WSW 21:24:09 40° NW 21:29:29 10° NNE
Cosmos 2237 Rocket 2.9 21:20:03 10° SW 21:25:35 59° WNW 21:31:11 10° NNE
Cosmos 2218 Rocket 4.1 21:19:19 10° S 21:25:43 87° E 21:32:11 10° N
Cosmos 1624 Rocket 4.0 21:21:55 10° SSW 21:27:06 90° SSE 21:32:22 10° NNE
Cosmos 2366 rocket 4.0 21:22:40 10° S 21:28:56 84° E 21:35:18 10° N
Cosmos 1707 Rocket 4.1 21:26:34 10° SSE 21:30:33 38° E 21:34:34 10° NNE
Spot 2 Rocket 3.6 21:27:00 10° SSE 21:32:06 80° WSW 21:37:12 10° NNW
Cosmos 2278 Rocket 4.2 21:28:11 10° NW 21:32:46 26° WSW 21:37:19 10° SSW
Cosmos 1954 Rocket 4.0 21:27:40 10° NNW 21:32:56 83° ENE 21:38:06 10° SSE
SL-8 Rocket 4.4 21:28:25 10° SSW 21:34:41 71° W 21:40:57 10° N
RESURS DK-1 3.6 21:31:45 10° NNW 21:35:23 28° NE 21:38:26 13° ESE
Cosmos 1869 Rocket 3.5 21:32:16 10° N 21:36:39 81° E 21:40:59 10° SSE
Cosmos 614 Rocket 4.0 21:32:16 10° NNW 21:37:32 89° ENE 21:42:42 10° SSE
GENESIS II 4.4 21:33:44 10° NNW 21:37:40 61° NE 21:40:45 16° SE
Lacrosse 5 2.0 21:33:59 10° NW 21:39:04 70° NNE 21:43:20 15° ESE
NOAA 11 4.3 21:33:37 10° SSE 21:39:07 81° WSW 21:44:40 10° NNW
Cosmos 1441 Rocket 3.1 21:35:37 10° S 21:39:19 67° E 21:43:06 10° NNE
Meteor 2-10 Rocket 3.8 21:34:20 10° S 21:40:08 90° SE 21:46:00 10° NNE
Cosmos 1733 Rocket 4.1 21:38:13 10° N 21:42:06 30° ENE 21:44:50 16° SE
Cosmos 2098 Rocket 2.8 21:38:52 10° SSW 21:42:44 68° W 21:45:57 10° N
MetOp-B 4.4 21:40:42 12° SE 21:45:27 55° ENE 21:50:41 10° N
SPOT 5 3.9 21:44:47 15° ESE 21:47:31 27° ENE 21:51:10 10° N
Thor Agena Rocket 4.5 21:43:27 10° N 21:48:34 54° WNW 21:53:42 10° SW
SL-8 R/B 3.7 21:44:28 10° W 21:49:16 89° S 21:54:06 10° E
USA 234 4.3 21:45:27 10° ENE 21:51:32 42° N 21:57:36 10° WNW
ERS-1 Rocket 3.3 21:49:40 16° SE 21:53:31 51° ENE 21:58:23 10° N
Cosmos 1943 Rocket 2.9 21:49:06 10° NNW 21:54:17 39° NE 21:58:06 17° ESE
Helios 1B rocket 4.1 21:52:29 10° NE 21:55:06 16° E 21:55:37 16° E
ARGOS 3.1 21:50:23 12° SSE 21:55:16 74° ENE 22:00:39 10° N
Cosmos 1420 Rocket 4.0 22:03:32 10° S 22:08:48 69° ESE 22:14:07 10° NNE
Cosmos 1934 Rocket 4.2 22:06:31 16° SSE 22:11:04 47° E 22:16:49 10° NNE
Gblst 52 Del rocket 4.2 22:06:27 10° SW 22:11:51 52° SE 22:17:11 10° ENE
Meteor 1-26 Rocket 4.4 22:09:06 16° SSE 22:13:23 50° E 22:18:47 10° NNE
Cosmos 405 Rocket 3.6 22:12:33 10° SSW 22:16:22 51° WNW 22:20:18 10° N
Cosmos 1933 3.3 22:13:17 10° S 22:17:21 86° WNW 22:21:28 10° N
Landsat 7 4.5 22:16:47 24° ESE 22:19:03 40° ENE 22:23:30 10° N
Cosmos 1782 4.1 22:19:29 23° E 22:19:46 23° E 22:22:56 10° NE
SL-16 R/B 3.0 22:14:44 10° SW 22:20:16 54° NW 22:25:50 10° NNE
SL-08 RB Rocket 3.7 22:18:41 21° S 22:21:43 83° WSW 22:26:13 10° NNW
CZ-4C R/B 2.1 22:21:02 10° SSW 22:26:16 78° SE 22:32:24 10° NE
MetOp-A 4.5 22:22:11 15° S 22:26:41 64° WSW 22:32:02 10° NNW
Meteor 1-29 4.5 22:26:46 10° NE 22:28:53 21° ENE 22:28:53 21° ENE
Cosmos 921 Rocket 3.0 22:27:36 23° S 22:30:08 58° ESE 22:34:21 10° NNE
SL-24 R/B 4.5 22:31:49 27° SSE 22:34:34 66° E 22:39:25 10° N
Cosmos 1461 3.4 22:29:48 10° NNW 22:34:35 62° NE 22:36:36 32° ESE
Cosmos 1437 Rocket 3.1 22:31:21 10° NNW 22:35:14 64° W 22:37:15 27° S
Intercosmos 24 4.2 22:31:41 12° S 22:36:59 87° E 22:41:02 10° N
Terra 2.5 22:35:17 29° ESE 22:37:00 40° ENE 22:41:28 10° N
Cosmos 1110 Rocket 4.5 22:38:39 32° SE 22:40:17 40° ESE 22:45:14 10° NE
Cosmos 2242 Rocket 3.4 22:37:59 27° S 22:40:23 79° E 22:44:50 10° NNE
Helios 1A 2.9 22:39:11 33° S 22:41:00 83° WSW 22:45:13 10° NNW
Cosmos 1908 Rocket 3.9 22:36:58 10° N 22:41:20 51° ENE 22:42:37 38° SE
USA 245 3.0 22:42:56 43° WNW 22:42:56 43° WNW 22:44:48 10° NNW
CZ-2C R/B 4.2 22:39:22 10° NE 22:43:03 18° E 22:43:13 18° E
SPOT 1/Viking Rocket 3.5 22:41:25 31° SSE 22:44:01 82° ENE 22:49:16 10° NNW
Cosmos 1943 3.3 22:41:49 21° S 22:45:31 56° ESE 22:51:05 10° NE
Cosmos 1862 Rocket 3.4 22:45:36 30° S 22:47:43 84° E 22:52:06 10° N
Cosmos 1821 Rocket 4.2 22:41:32 10° SSW 22:47:51 73° W 22:54:08 10° N
Cosmos 1603 3.7 22:42:19 10° SSW 22:47:57 87° WNW 22:53:36 10° NNE
Cosmos 2369 Rocket 2.3 22:42:17 10° NNW 22:47:58 71° WSW 22:50:47 30° S
SL-19 R/B 4.2 22:45:31 31° SSE 22:48:16 80° ENE 22:54:01 10° NNW
GEOS 3 Rocket 4.4 22:45:16 10° ENE 22:49:49 31° ESE 22:49:49 31° ESE
H-2A R/B 2.7 22:48:13 19° SSW 22:51:31 47° W 22:56:17 10° NNW
Cosmos 1633 2.7 22:48:03 10° NNW 22:51:37 68° W 22:52:27 47° SSW
IGS 5A 3.6 22:51:43 46° ESE 22:52:38 58° ENE 22:56:46 10° N
DMSP B5D2-2 4.0 22:50:39 10° NNE 22:55:57 78° ESE 22:58:48 28° S
ATLAS 5 CENTAUR R/B 2.6 22:50:26 10° NW 22:56:14 62° SW 22:59:12 32° SSE
CZ-2C R/B 3.6 22:55:41 33° ESE 22:56:59 40° ENE 23:01:36 10° N
Meteor 2-17 Rocket 4.4 22:53:28 22° S 22:57:36 86° E 23:03:46 10° N
USA 267 4.3 22:52:19 10° ENE 22:56:09 24° ESE 22:56:09 24° ESE
Cosmos 389 Rocket 2.7 22:54:21 10° N 22:57:43 53° ENE 22:57:43 53° ENE
Meteor 1-4 Rocket 3.1 22:57:32 10° NNW 23:00:54 50° W 23:01:33 42° SW
Cosmos 2263 4.2 22:56:45 10° NNW 23:02:21 74° WSW 23:04:34 38° S
Cosmos 2123 Rocket 4.2 22:57:53 10° NNW 23:04:08 68° W 23:07:49 26° S
Cosmos 1606 2.7 23:09:23 58° SSW 23:10:04 82° W 23:14:01 10° N
Spot 1 4.4 23:11:55 43° S 23:13:22 69° WSW 23:17:56 10° NNW
RESURS DK-1 3.4 23:09:41 10° NW 23:13:30 36° WSW 23:14:21 32° SW
Cosmos 1174 4.3 23:15:14 10° SW 23:20:02 64° NW 23:23:52 10° NNE
Lacrosse 5 3.0 23:17:21 10° WNW 23:21:44 30° SW 23:22:32 28° SW
Nimbus 7 Rocket 4.4 23:16:14 10° NNE 23:22:05 62° ESE 23:23:41 45° SSE
Cosmos 1900 4.4 23:18:36 10° NNW 23:23:31 66° NE 23:24:29 52° ESE
CARTOSAT-1 3.7 23:24:02 56° SSW 23:24:45 67° WSW 23:29:04 10° NNW
Meteor 1-11 Rocket 3.8 23:19:11 10° N 23:24:46 62° ENE 23:26:02 49° SE
SPOT 5 3.7 23:24:01 29° SW 23:25:31 37° W 23:29:35 10° NNW
BREEZE-M DEB (TANK) 4.2 23:24:49 10° WNW 23:25:39 21° W 23:25:39 21° W
Cosmos 2173 Rocket 4.3 23:26:18 42° SE 23:27:43 49° E 23:33:47 10° NNE
Helios 1B rocket 3.0 23:26:40 10° N 23:30:43 55° WNW 23:31:58 38° SW
Cosmos 1302 Rocket 4.1 23:30:51 53° ESE 23:31:03 53° ESE 23:36:07 10° NNE
Okean 1-7 2.9 23:31:50 68° E 23:31:50 68° E 23:35:59 10° NNE
SL-8 R/B 3.5 23:27:02 10° W 23:31:50 74° SSW 23:32:09 70° SSE
Meteor 1-27 Rocket 4.0 23:31:23 48° SE 23:32:21 54° E 23:37:57 10° NNE
USA 234 3.7 23:29:08 18° E 23:33:56 58° NNE 23:40:20 10° NW
Cosmos 1656 Rocket 3.6 23:28:33 10° NNW 23:34:17 87° ENE 23:35:36 55° SSE
Cosmos 2344 4.2 23:26:46 10° WSW 23:34:19 61° NW 23:43:19 10° NE
Cosmos 1943 Rocket 3.0 23:32:54 10° NW 23:38:03 40° WSW 23:39:38 33° SW
Cosmos 1605 Rocket 4.4 23:34:49 24° SSW 23:38:45 62° WNW 23:45:07 10° N
SAR-Lupe-4 4.1 23:41:10 56° N 23:41:10 56° N 23:44:06 10° N
Cosmos 2016 Rocket 4.3 23:42:42 43° ESE 23:43:33 46° E 23:49:20 10° NNE
Cosmos 1782 Rocket 3.9 23:44:02 10° NNW 23:48:27 58° W 23:48:49 56° WSW
Cosmos 1331 Rocket 4.3 23:47:39 34° SW 23:49:54 65° WNW 23:55:09 10° NNE
Cosmos 1271 Rocket 3.0 23:47:58 10° NNW 23:51:29 68° NNW 23:51:29 68° NNW
Cosmos 1459 Rocket 3.9 23:51:08 55° SSE 23:52:27 74° E 23:58:32 10° NNE
Sich 1 Rocket 4.5 23:51:22 10° NNW 23:55:41 41° W 23:56:20 39° WSW
Cosmos 1782 4.2 23:55:05 29° W 23:55:57 32° WNW 23:59:35 10° N
